Tracking 23731 objects as of 26-Sep-2021
HD Live streaming from Space Station
objects crossing your sky now

HISPASAT 1A

Track HISPASAT 1A now!
HISPASAT 1A is classified as:


NORAD ID: 22116
Int'l Code: 1992-060A
Perigee: 36,056.9 km
Apogee: 36,068.2 km
Inclination: 13.0 °
Period: 1,449.9 minutes
Semi major axis: 42433 km
RCS: 7.143 m2 (large)
Launch date: September 10, 1992
Source: Spain (SPN)
Launch site: FRENCH GUIANA (FRGUI)
aabbcc
Your satellite tracking list
Your tracking list is empty




NASA's NSSDC Master Catalog

Two Line Element Set (TLE):
1 22116U 92060A   21268.55610140 -.00000221  00000-0  00000-0 0  9996
2 22116  13.0096  22.4512 0001332 277.6789  73.4931  0.99320541102355
Source of the keplerian elements: AFSPC